sat.trackr.live / text

‹ back to catalog

STARLINK-31527

NORAD 59018 · 2024-036W

PAYLOAD ACTIVE UNKNOWN

§ Identity

Operator
Country
US
Launch date
2024-02-23
Launch site
AFWTR
Launch vehicle
Mass (kg)
RCS (m²)

Purposes: comms

External: N2YO · Heavens-Above · Gunter

§ Orbital elements

Epoch: 2026-05-25T03:02:07.477152Z

Period
94.11 min
Inclination
53.1603°
Eccentricity
0.0001186
Mean motion
15.30192760 rev/d
Perigee alt
474.4 km
Apogee alt
476.0 km
Semi-major
6,853.4 km
B*
1.7614e-5
RAAN
83.2595°
Arg perigee
91.5880°
Mean anomaly
268.5257°
Rev number
12,702

§ Raw data

STARLINK-315271 59018U 24036W   26145.12647543  .00000162  00000+0  17614-4 0  99992 59018  53.1603  83.2595 0001186  91.5880 268.5257 15.30192760127023

JSON: /api/v1/satellites/59018 · /tle

For live sub-satellite position, see the globe view (requires WebGL).

§ Visibility from observer

Set your observer location to see the next 7 days of passes ≥ 10°. The values pass through the URL so the page stays shareable.

No JS? Fill the form by hand. The geolocation button needs JavaScript.